User: anonymous
Location: The D'Auria's Ocala Star Observatory
(29.0276°N, 82.1742°W)
Time: 06:16:00
(UTC-04:00)
Language:

Okean 3 Rocket - Orbit

View from above orbital plane
View from above orbital plane
View from above satellite
View from above satellite

Ground track
Ground track

The orbit data is extracted from the following two-line orbital elements,

1 21398U 91039B   14109.93170600  .00000664  00000-0  86235-4 0  7167
2 21398 082.5249 220.3107 0021402 009.0459 130.0216 14.79126580233246
Epoch (UTC): 19 April 2014 22:21:39
Eccentricity: 0.0021402
inclination: 82.5249°
perigee height: 617 km
apogee height: 647 km
right ascension of ascending node: 220.3107°
argument of perigee: 9.0459°
revolutions per day: 14.79126580
mean anomaly at epoch: 130.0216°
orbit number at epoch: 23324

The dashed part of the orbit path shows where the satellite is in the earth's shadow,  

DLR